Regional Weather Roundup
Issued by NWS

Home | Current Version | Previous Version | Graphics & Text | Print | Product List | Glossary On
Versions: 1 2 3 4 5 6 7 8 9 10 11 12 13 14 15 16 17 18 19 20 21 22 23 24 25 26 27 28 29 30 31 32 33 34 35 36 37 38 39 40 41 42 43 44 45 46 47 48 49 50
000
ASUS43 KLSX 211707
RWRMO

WEATHER SUMMARY FOR MISSOURI
NATIONAL WEATHER SERVICE SPRINGFIELD MO
1200 PM CDT SAT OCT 21 2017

NOTE: "FAIR" INDICATES FEW OR NO CLOUDS BELOW 12,000 FEET WITH NO
       SIGNIFICANT WEATHER AND/OR OBSTRUCTIONS TO VISIBILITY.
       CURRENT SKY AND/OR WEATHER CONDITIONS ARE NOT AVAILABLE FOR
       CHILLICOTHE AND FARMINGTON.

MOZ001>031-035>038-043-044-053-054-211800-
...NORTHERN AND WESTERN MISSOURI...

CITY           SKY/WX    TMP DP  RH WIND       PRES   REMARKS
KANSAS CTY INT MOSUNNY   72  63  73 S29G38    29.80F
KANSAS C DTWN  CLOUDY    73  64  73 S21G29    29.83F
LEE`S SUMMIT   CLOUDY    72  63  73 S23G29    29.86S
ST JOSEPH      LGT RAIN  70  63  78 S17G28    29.78F
CHILLICOTHE      N/A     74  63  68 S16G28    29.86F
KIRKSVILLE     SUNNY     74  63  68 S18G29    29.90F

$$
MOZ066>068-077>081-088>096-101>105-211800-
...SOUTHWEST MISSOURI...

CITY           SKY/WX    TMP DP  RH WIND       PRES   REMARKS
SPRINGFIELD    CLOUDY    74  62  66 S21G28    29.98S
JOPLIN         MOSUNNY   77  65  66 S17G32    29.92S
BRANSON        CLOUDY    73  63  68 SE13G18   30.02F

$$
MOZ032>034-039>042-045>050-055>058-069>072-211800-
...CENTRAL MISSOURI...

CITY           SKY/WX    TMP DP  RH WIND       PRES   REMARKS
COLUMBIA       SUNNY     77  62  59 S17G26    29.95F
JEFFERSON CITY SUNNY     77  61  57 S16G24    29.95F
ROLLA          PTSUNNY   74  63  68 S22G29    30.03F
SEDALIA        SUNNY     77  63  61 S18G33    29.93F
WHITEMAN AFB   MOSUNNY   74  62  66 S24G36    29.85F
WARRENSBURG    MOSUNNY   75  61  60 S17G23    29.88F
OSAGE BEACH    MOSUNNY   74  62  66 S18G25    29.98F

$$
MOZ051-052-059>065-211800-
...EAST CENTRAL MISSOURI...

CITY           SKY/WX    TMP DP  RH WIND       PRES   REMARKS
ST LOUIS INTL  LGT RAIN  67  60  78 S12       30.07S
SPIRIT OF STL  LGT RAIN  69  63  81 S9G22     30.04S
ST CHARLES     PTSUNNY   70  60  70 S12       30.05S

$$
MOZ072>076-082>087-097>100-106>115-211800-
...SOUTH CENTRAL AND SOUTHEAST MISSOURI...

CITY           SKY/WX    TMP DP  RH WIND       PRES   REMARKS
CAPE GIRARDEAU CLOUDY    76  53  44 S14       30.11F
FARMINGTON     MOSUNNY   71  60  68 S12G20    30.09F
POPLAR BLUFF   PTSUNNY   77  59  53 S15G21    30.09F
WEST PLAINS    CLOUDY    69  63  81 S7        30.08S

$$



USA.gov is the U.S. government's official web portal to all federal, state and local government web resources and services.